Lid_Strength_Index
2 0 -1 -1 -1 -1 -1 -1 -1 -1 -1 -1 -1 -1 -1 -1 -1 -1 -1 -1 -1 -1 -1 -1 -1 -1 -1 -1 -1 -1 -2 -2 -1 -1 -1 -1 -1 -1 -1 -1 -1 -1 -1
1 0 -1 -1 -1 -1 -1 -1 -1 -1 -1 -1 -1 -1 -1 -1 -1 -1 -1 -1 -1 -1 -1 -1 -1 -1 -1 -1 -1 -1 -2 -2 -1 -1 -1 -1 -1 -1 -1 -1 -1 -1 -1
1 0 -0 -1 -1 -1 -1 -1 -1 -1 -1 -1 -1 -1 -1 -1 -1 -1 -1 -1 -1 -1 -1 -2 -2 -1 -1 -1 -1 -1 -2 -1 -1 -1 -1 -0 -0 -1 -1 -1 -1 -1 -1
0 -0 -0 -1 -1 -1 -1 -1 -1 -1 -1 -1 -1 -1 -1 -1 -1 -1 -1 -2 -1 -1 -2 -2 -2 -2 -1 -1 -1 -1 -2 -1 -1 -1 -0 -0 -0 -1 -1 -2 -1 -1 -1
1 0 -0 -1 -1 -1 -1 -1 -1 -1 -1 -1 -1 -1 -1 -1 -1 -1 -1 -2 -1 -1 -2 -2 -2 -2 -1 -1 -1 -1 -1 -1 -1 -0 -0 -0 -0 -1 -1 -1 -1 -1 -1
1 0 -1 -1 -1 -1 -1 -1 -1 -1 -1 -1 -1 -1 -1 -1 -1 -2 -2 -2 -1 -1 -1 -1 -2 -2 -1 -1 -1 -1 -1 -1 -1 -0 0 -0 -0 -1 -1 -1 -1 -1 -1
1 0 -0 -1 -1 -1 -1 -1 -1 -1 -1 -1 -1 -1 -1 -1 -1 -1 -1 -1 -1 -1 -1 -1 -2 -2 -1 -1 -1 -1 -1 -1 -0 -0 0 0 0 -1 -1 -1 -2 -1 -1
1 0 -0 -0 -1 -1 -1 -1 -1 -1 -1 -1 -1 -1 -1 -1 -1 -1 -1 -1 -1 -1 -1 -1 -1 -1 -1 -1 -1 -1 -1 0 0 0 0 0 -1 -2 -1 -1 -2 -2 -2
5 4 2 -0 -0 -0 -0 -1 -1 -1 -1 -1 -1 -1 -1 -1 -1 -1 -1 -1 -1 -1 -1 -1 -1 -1 -1 -1 -1 -0 0 0 0 0 -0 -0 -1 -2 -2 -1 -2 -2 -2
5 5 4 4 3 0 -0 0 0 -1 -0 -0 -0 0 0 0 0 -0 0 -0 -1 -1 -1 -1 -1 -1 -1 -1 -1 0 0 1 0 0 -0 -0 -1 -2 -2 -2 -2 -2 -1
6 6 5 4 4 4 1 -0 1 0 0 0 1 1 1 0 0 0 0 -0 -1 -1 -1 -1 -1 -1 0 0 1 1 1 1 0 -0 -0 0 -1 -2 -2 -1 -1 -2 -2
8 7 7 6 4 3 3 1 0 -0 0 -0 -0 -0 -0 0 1 0 1 1 -0 0 -0 -1 -1 0 1 1 2 3 3 2 -0 0 -0 0 -1 -1 -2 -1 -2 -2 -2
9 9 8 7 6 4 3 2 1 0 -0 -0 0 0 -0 -0 1 1 1 2 2 3 1 0 1 0 1 1 2 3 2 1 0 -0 0 0 -1 -1 -2 -2 -2 -2 -2
10 9 9 8 7 6 5 3 2 1 0 -0 -0 0 0 0 1 1 1 1 1 1 3 2 2 3 2 2 2 1 2 2 0 0 0 1 -0 -1 -2 -2 -2 -2 -2
10 10 10 9 8 7 6 5 4 2 1 0 -0 -0 -0 0 1 1 2 1 1 1 1 2 3 3 3 3 3 2 2 2 1 1 1 3 1 -1 -2 -2 -2 -2 -2
11 10 9 9 8 7 6 6 5 3 1 0 -0 -0 -0 0 0 1 1 1 2 1 1 2 2 3 3 3 2 2 3 2 2 2 2 2 1 0 -1 -2 -2 -2 -2
11 10 10 9 9 8 8 7 5 4 2 1 0 -0 -0 -0 0 1 1 1 1 0 1 1 1 2 3 2 2 2 2 2 2 2 1 2 1 2 0 -1 -2 -2 -2
12 11 10 9 10 9 9 8 6 4 4 3 1 -0 -0 -0 -0 0 1 1 1 1 1 1 1 2 2 2 2 2 3 2 2 2 2 2 2 1 1 -0 -1 -2 -2
13 12 12 11 11 11 9 8 7 5 5 4 4 3 1 -0 -0 0 1 1 1 1 1 1 2 2 2 2 2 3 2 2 2 3 3 2 3 2 1 1 1 1 -0
13 13 13 11 10 10 9 9 8 7 5 5 5 5 4 1 3 2 0 1 0 2 2 1 2 2 2 2 2 2 2 3 2 2 3 3 3 3 2 1 2 2 1
14 13 12 12 11 10 10 10 10 9 7 6 5 4 3 2 3 4 5 1 1 1 2 2 2 2 2 2 2 3 3 3 3 3 2 2 4 3 3 2 3 2 1
14 13 12 11 10 10 10 10 9 9 7 6 3 3 2 3 3 5 4 6 1 1 1 2 2 3 3 1 3 5 7 6 5 3 3 3 3 3 3 3 3 3 3
13 13 11 11 10 10 9 9 9 8 7 5 5 3 2 3 3 5 5 5 5 1 2 2 2 3 3 2 2 4 7 7 6 7 5 4 4 3 3 3 3 3 3
13 12 11 11 10 9 8 9 9 9 8 6 6 4 3 1 3 5 5 5 5 4 2 1 2 2 2 3 3 3 4 5 7 9 9 7 4 4 4 3 3 4 4
12 12 11 11 10 9 10 10 10 8 7 7 6 5 4 3 4 4 7 6 5 7 2 1 2 2 2 2 3 4 5 5 6 6 8 10 9 6 4 3 3 4 4
12 12 11 11 11 10 11 12 12 11 10 9 8 7 6 4 5 5 7 7 5 5 4 2 2 2 2 2 2 3 5 5 6 6 7 8 7 11 8 5 5 5 5